Wind_Speed
23 23 24 24 24 23 23 23 24 24 25 26 28 29 30 30 31 32 32 32 32 32 33 33 34 34 34 33 33 33 33 33 32 32 31 31 32 33 33 34 34 35 35 35 35 36 36 36 37 39 40 42 43 44 44 44 44 44 43 42 41 40 39 38 39 39 37 35 34
23 24 24 24 23 23 23 24 24 25 26 28 29 30 31 31 32 32 32 32 32 33 33 34 34 34 34 34 34 34 34 35 34 34 33 32 32 32 33 33 34 35 35 36 36 36 37 37 38 39 40 41 42 43 44 44 44 44 43 43 42 41 39 38 38 39 39 38 36
23 23 23 23 23 23 24 25 25 27 28 30 31 32 32 32 32 32 33 33 33 33 34 34 34 34 34 35 35 35 35 36 36 36 35 34 34 33 33 33 34 34 35 36 36 37 37 37 38 39 40 41 42 43 44 44 44 43 43 43 43 42 39 38 37 37 38 38 37
23 23 23 23 23 24 24 25 27 29 30 32 32 32 32 32 32 32 33 33 33 34 34 34 35 35 35 35 35 35 35 36 36 37 37 37 36 35 35 34 34 34 35 35 36 37 37 37 38 39 41 42 42 43 44 44 43 43 43 43 43 42 41 40 40 39 38 38 38
24 24 24 24 24 24 25 26 28 30 32 33 33 32 32 32 32 33 33 33 34 34 34 35 35 35 36 36 36 36 36 36 37 38 39 40 39 39 38 37 36 35 35 35 35 36 37 37 38 39 40 42 43 44 44 44 43 43 43 43 43 42 41 40 40 39 38 38 38
24 24 24 25 25 26 27 28 30 31 32 32 32 32 32 33 33 33 34 34 35 35 35 35 36 36 36 36 37 37 37 38 39 40 41 42 42 42 42 40 39 37 35 34 34 35 35 36 37 38 40 41 43 44 45 45 44 43 43 43 43 43 41 40 39 39 38 37 36
25 25 25 26 26 27 29 30 31 32 32 31 31 32 33 33 34 34 34 35 35 35 35 35 36 36 37 37 38 38 39 40 41 42 43 44 45 45 45 44 41 39 37 35 34 34 34 35 36 38 39 40 42 43 44 44 44 43 42 42 43 43 41 41 40 39 38 37 36
26 26 26 27 28 29 30 31 32 32 32 31 31 32 33 34 34 35 35 36 36 36 36 36 36 36 37 37 39 40 40 41 43 44 45 46 47 47 47 46 44 41 39 36 35 34 34 34 35 37 38 39 41 41 42 43 43 43 43 43 43 43 42 42 42 41 39 38 36
27 27 27 28 29 31 32 33 33 32 32 32 32 32 33 34 35 36 36 36 36 36 36 36 36 36 36 37 39 40 41 43 44 46 47 48 48 49 49 48 46 44 42 39 37 35 35 35 36 37 38 39 40 40 40 40 41 42 43 43 43 44 44 44 44 42 41 38 37
28 28 28 29 30 32 33 34 34 34 33 33 33 34 34 35 35 36 36 37 37 37 36 36 36 36 36 38 39 40 42 44 45 47 48 49 50 50 51 50 49 47 44 41 39 38 37 37 38 39 40 41 41 41 41 40 40 41 42 43 44 45 46 46 45 43 41 39 37
30 29 29 29 31 32 33 35 35 35 35 34 35 35 35 36 36 36 37 37 37 37 37 36 36 36 37 38 39 40 42 44 45 47 49 50 51 52 52 51 50 49 46 43 41 40 39 38 39 40 41 42 43 44 44 43 42 41 42 44 45 46 47 47 46 45 42 41 39
31 31 30 30 30 31 32 34 35 35 35 35 35 36 36 36 37 37 37 37 38 38 38 37 37 37 37 38 39 40 42 43 45 47 49 50 52 53 53 52 51 49 47 45 43 41 40 39 39 40 41 42 44 46 46 46 45 43 43 43 44 45 46 46 46 46 44 42 39
32 32 31 31 31 31 31 32 33 34 35 35 36 36 37 37 37 37 37 38 38 39 38 38 38 38 38 39 40 41 42 44 45 47 49 51 52 53 53 53 52 50 48 46 44 42 41 41 40 40 40 42 43 45 47 49 48 46 44 43 43 43 44 45 45 45 44 41 39
33 33 32 32 31 30 31 31 32 33 34 35 36 36 37 37 37 37 37 38 39 39 39 39 39 40 40 41 42 43 44 45 46 47 49 51 52 53 53 53 52 50 48 46 45 43 43 42 41 41 41 41 42 44 46 49 50 49 48 45 44 43 43 43 43 44 43 41 38
33 33 33 32 31 31 31 31 32 33 34 35 36 37 37 37 37 37 38 38 39 39 40 40 41 42 43 44 44 45 45 46 46 47 49 50 51 52 52 52 51 50 48 47 45 44 43 43 43 42 42 41 42 43 45 47 49 50 50 48 46 44 43 42 42 43 43 41 38
32 32 33 33 33 32 32 33 34 34 35 36 37 37 37 37 37 38 38 39 40 41 41 42 43 44 46 47 46 46 46 46 47 47 48 49 50 50 51 50 50 49 48 47 46 45 44 44 44 43 43 42 42 42 43 45 47 49 50 50 49 47 45 44 43 43 43 41 38
31 31 32 33 34 34 34 35 35 36 36 37 37 37 38 38 38 39 40 41 42 43 44 46 46 47 47 48 47 47 46 46 46 46 46 47 48 49 49 49 48 48 48 47 46 46 45 45 45 45 44 43 43 42 43 44 46 48 50 50 50 48 47 46 45 43 42 40 39
30 31 32 33 34 35 36 36 36 37 37 38 38 38 39 39 40 42 43 44 45 46 47 48 49 48 48 48 48 46 45 44 44 44 45 46 47 47 48 48 47 47 47 47 46 46 46 46 46 46 45 45 44 43 43 43 44 46 48 49 49 48 47 46 45 44 41 39 39
31 32 33 34 35 36 36 37 37 38 38 39 39 40 41 42 43 44 45 46 46 47 47 48 49 48 47 47 46 46 44 43 43 44 45 46 46 47 47 47 46 46 46 47 47 47 47 47 47 47 46 45 44 44 43 43 44 45 46 47 47 47 47 47 46 43 41 39 39
33 33 34 35 36 36 37 38 39 39 40 41 41 42 43 43 44 45 45 46 46 47 47 47 47 46 46 45 45 45 45 44 44 44 45 45 46 46 46 46 45 45 46 47 47 48 48 48 47 47 46 45 44 44 43 43 43 44 45 45 46 46 47 47 46 43 40 39 39
34 35 36 36 37 38 39 39 40 41 42 42 43 43 44 44 44 45 45 45 45 46 46 45 45 45 45 44 45 45 46 45 45 45 45 45 46 47 47 47 45 45 46 47 48 49 49 48 48 47 46 45 45 44 44 43 43 43 44 44 45 46 46 46 45 43 40 38 39
37 38 38 39 40 40 41 41 42 42 43 43 43 44 44 44 44 44 44 44 44 44 44 44 44 44 44 44 44 45 45 46 46 46 47 47 48 48 49 48 48 48 48 49 50 50 50 49 48 47 46 45 45 44 44 43 43 43 44 44 45 45 46 46 45 43 40 39 39
40 41 41 42 42 43 43 43 43 43 43 43 43 43 43 42 42 42 43 43 43 44 44 44 44 44 44 44 44 44 45 46 47 48 49 49 49 49 49 49 48 48 49 49 49 49 49 49 48 47 46 45 44 44 44 43 43 43 43 43 44 44 45 46 46 44 42 40 41
43 43 44 44 44 44 44 44 44 44 43 43 43 42 42 42 42 42 42 43 43 43 44 45 45 44 44 44 45 45 46 47 48 49 50 50 50 49 49 48 48 48 48 48 48 49 48 48 47 46 45 44 43 43 43 44 43 43 43 42 42 44 45 47 46 44 42 41 42
44 45 45 45 45 45 44 44 44 43 43 42 42 42 42 41 41 41 42 43 43 44 44 45 44 44 44 45 45 46 46 47 48 49 49 49 49 49 49 48 48 48 48 49 49 49 49 48 47 46 44 43 42 42 42 43 43 44 43 43 42 43 45 46 46 44 42 41 42
45 45 44 44 44 44 43 43 43 42 42 42 42 42 41 41 41 42 42 43 44 45 45 45 44 44 45 45 46 46 47 48 48 48 48 49 49 49 49 48 48 47 48 49 49 49 49 48 47 45 44 43 43 42 42 42 43 43 43 43 42 43 45 46 46 44 42 41 42
44 43 43 43 43 43 42 42 42 42 42 42 42 42 42 42 42 42 43 44 44 45 45 45 45 45 45 45 46 46 47 47 47 47 47 47 47 48 48 48 48 48 49 49 50 50 49 48 47 46 44 43 43 44 44 44 44 43 43 43 43 44 46 47 46 45 43 42 44
42 42 42 42 42 42 42 42 42 42 42 42 42 42 42 42 43 43 44 44 44 44 45 45 44 44 44 45 45 45 46 46 46 46 46 46 47 47 48 49 49 50 51 51 51 51 50 49 48 46 44 43 43 44 44 45 45 44 44 44 44 44 45 46 47 45 45 45 46
41 41 41 41 41 42 42 42 42 42 42 42 42 42 43 43 43 43 43 44 44 44 44 44 43 43 44 44 44 44 45 46 46 46 46 47 48 49 50 51 51 51 52 52 52 51 50 48 47 45 44 43 42 43 43 44 44 44 44 45 45 44 44 45 45 46 46 47 48
40 40 40 41 41 42 42 42 43 43 43 43 43 43 43 43 43 43 43 43 43 43 43 43 43 44 44 44 45 46 46 47 47 47 48 48 50 50 51 51 52 52 52 52 51 50 49 47 46 44 43 42 41 41 41 42 42 43 45 46 46 46 45 45 45 45 47 48 49
40 40 40 41 42 42 43 43 43 43 43 43 43 43 43 43 43 43 43 43 43 43 43 43 44 45 46 46 47 47 48 48 48 49 49 49 50 51 51 51 52 52 52 51 50 49 47 45 44 42 41 40 40 40 40 40 41 43 45 47 47 47 47 47 46 47 48 49 50
40 40 41 41 42 43 43 43 43 43 43 44 44 43 43 43 43 43 43 43 43 43 44 44 44 45 46 47 47 47 48 48 48 49 49 49 50 50 50 51 51 51 51 50 48 47 45 43 42 40 39 39 39 39 39 40 41 42 44 47 48 48 47 48 48 48 49 50 51
40 41 42 42 43 43 44 44 44 44 44 44 44 44 43 43 44 44 43 43 43 43 44 45 45 45 46 46 47 47 47 47 48 48 48 49 49 50 50 51 51 50 49 48 46 45 43 41 40 40 39 38 38 38 39 40 42 42 44 47 49 49 48 49 49 50 51 51 52
41 42 42 43 43 43 44 44 44 44 45 45 44 44 43 43 43 43 43 44 44 44 44 45 45 46 46 46 47 47 47 48 48 48 48 48 48 49 49 50 50 49 48 46 45 43 42 41 41 40 39 38 37 38 39 41 42 43 45 47 49 49 50 50 51 51 52 52 52
41 41 42 43 43 43 44 44 44 44 44 44 44 43 43 43 43 44 44 44 44 44 45 45 46 46 46 46 47 47 47 48 48 48 47 47 48 48 49 50 49 48 46 45 43 42 42 42 41 40 37 35 35 36 38 40 42 45 48 50 50 50 50 51 51 51 51 51 51
41 41 41 42 43 43 43 43 43 43 43 44 44 44 45 45 45 44 44 44 43 44 44 45 45 46 46 46 46 47 47 47 47 47 47 47 47 48 49 50 49 47 44 43 42 42 42 42 41 38 35 33 33 34 36 38 42 47 50 52 52 52 51 51 50 50 49 49 49
40 40 40 42 42 42 42 43 43 43 44 45 45 45 45 45 45 44 43 43 43 43 44 45 45 46 46 47 47 47 47 47 47 48 48 48 48 49 50 50 48 46 43 42 41 41 42 41 39 36 34 33 34 34 36 39 44 49 52 53 53 53 51 50 49 48 48 48 48
40 39 40 41 41 42 42 42 43 44 44 44 45 45 45 44 44 43 43 43 42 43 44 46 46 47 47 47 48 48 48 48 48 49 49 49 49 49 49 49 48 45 43 41 41 41 41 39 36 34 33 33 33 34 36 42 47 50 51 52 52 51 49 48 47 47 46 46 46
40 39 39 40 41 41 42 42 43 43 44 43 44 44 44 44 44 44 44 43 43 44 45 46 48 48 48 48 49 49 50 49 49 49 49 50 49 48 48 48 48 45 42 41 40 40 39 36 33 31 31 31 32 34 38 45 48 49 49 49 49 48 46 45 45 44 44 44 45
40 40 40 40 41 41 42 42 42 43 43 43 43 44 44 44 44 44 45 45 45 45 46 47 49 49 49 49 50 51 51 50 49 48 48 48 47 46 46 47 47 45 42 40 40 40 37 34 32 31 31 32 34 38 43 47 48 47 47 47 46 45 44 43 43 43 43 43 44
41 40 40 40 40 41 41 42 42 42 42 42 43 43 44 44 45 46 46 47 47 47 48 49 50 50 50 50 50 51 51 50 48 47 45 45 45 45 45 45 44 43 41 40 38 35 33 33 32 32 33 35 39 43 46 47 46 45 45 45 45 44 43 42 42 42 42 42 43
Wind_Direction
304 305 306 306 307 306 306 306 306 306 306 307 308 308 308 307 306 305 304 303 303 303 303 303 304 304 305 305 305 305 305 305 304 304 302 300 298 297 295 294 294 293 293 293 293 292 292 291 291 291 291 290 291 291 291 291 292 292 292 291 289 288 287 286 283 281 280 279 273
303 304 304 305 304 304 304 304 304 304 305 305 306 306 306 305 304 304 303 303 302 302 302 302 302 302 303 303 303 303 303 303 303 304 303 302 301 299 298 296 294 293 292 291 291 291 291 291 291 291 290 290 290 290 290 290 291 292 292 290 289 288 287 285 283 282 281 280 279
302 302 302 302 302 302 302 303 303 304 305 305 306 305 305 304 303 302 302 302 302 301 301 301 301 301 301 301 301 301 301 301 302 302 303 303 303 303 302 300 298 295 293 291 290 290 290 290 291 290 290 289 289 289 290 290 291 291 291 290 289 288 287 285 283 282 281 280 279
300 300 300 300 300 300 301 301 303 304 306 306 306 306 304 303 303 302 302 301 301 301 301 301 301 301 300 300 300 299 299 299 299 300 300 301 303 304 304 303 302 299 296 293 291 289 289 290 290 290 289 289 288 288 289 289 290 290 290 289 290 289 287 286 285 283 281 279 278
298 298 297 297 297 297 298 299 302 305 307 308 307 306 304 304 303 302 302 301 301 300 300 300 300 300 299 299 298 298 297 297 297 297 298 299 301 303 304 305 304 302 299 296 293 291 290 290 290 290 289 289 288 288 288 288 288 288 288 289 289 289 288 287 287 285 283 281 279
296 295 294 294 294 294 295 298 302 306 308 309 307 305 304 303 303 302 301 301 300 300 300 299 299 299 299 298 297 296 296 295 294 295 295 297 299 301 303 304 304 304 302 299 296 294 292 292 292 291 290 290 288 288 288 287 286 286 286 286 287 288 288 288 288 287 285 282 279
293 292 292 292 292 293 294 297 302 306 308 308 306 304 303 303 302 301 301 300 300 299 299 299 298 298 298 297 297 296 295 294 293 293 294 296 298 300 302 303 304 304 303 301 298 296 294 293 293 293 292 291 289 288 287 286 285 284 284 285 286 287 288 288 289 288 286 282 279
291 290 290 290 291 292 295 298 302 305 307 306 305 304 303 302 301 300 300 299 299 298 298 298 298 297 297 296 296 295 294 293 292 293 294 295 297 299 300 302 303 303 303 302 299 296 293 292 291 291 291 291 290 288 287 285 284 284 283 284 285 286 286 288 289 289 287 283 280
289 288 288 288 290 292 295 298 301 303 304 304 304 303 302 301 300 299 299 298 298 298 297 297 296 296 296 295 294 293 293 292 292 292 293 295 296 298 299 301 302 302 302 301 300 297 293 289 287 286 287 288 288 288 287 285 283 282 282 282 283 284 285 286 288 289 288 284 280
289 288 287 287 288 290 293 296 299 301 302 302 302 302 301 301 300 298 298 297 297 296 296 295 295 295 294 293 292 292 292 292 292 292 293 294 296 297 299 300 301 301 301 300 300 298 295 290 286 283 282 282 283 285 286 285 282 281 280 280 281 282 283 285 286 287 286 284 280
290 288 287 286 286 288 291 294 296 298 299 300 300 301 301 300 299 298 297 296 295 295 294 294 293 293 292 292 291 291 291 291 291 292 293 294 295 297 298 299 299 300 299 299 299 299 297 294 290 286 282 280 279 281 282 283 282 281 279 279 279 280 281 283 285 286 286 284 280
292 290 288 286 286 287 289 291 294 296 297 298 299 299 300 299 299 298 297 295 294 293 292 292 291 291 290 290 291 291 291 291 291 291 292 293 294 296 297 298 298 298 298 298 298 298 298 297 294 290 286 282 279 278 278 279 281 281 280 280 279 279 280 282 284 285 286 284 281
293 292 290 289 288 288 289 290 292 293 295 296 297 298 298 298 298 297 296 294 292 291 291 290 290 289 289 289 290 290 290 290 290 291 291 292 293 294 295 296 296 296 296 296 297 298 298 298 296 293 289 285 280 277 276 276 277 278 279 280 279 279 279 280 283 285 285 284 280
295 294 292 291 290 290 290 291 292 293 294 295 295 296 297 297 296 296 294 292 291 290 290 289 289 288 288 289 290 290 290 290 289 289 290 290 291 292 293 294 295 295 295 295 296 297 298 297 297 295 292 288 283 279 276 274 274 275 276 278 278 278 278 279 281 284 285 283 280
297 296 295 294 293 293 292 293 293 293 294 294 295 295 296 295 295 293 292 291 290 289 289 289 289 289 289 290 290 290 289 289 288 288 288 289 290 291 292 293 293 293 294 294 295 296 297 297 297 296 294 290 286 282 278 275 273 272 273 274 276 277 277 278 279 282 283 282 279
298 298 298 297 296 295 295 295 295 294 294 294 295 295 294 294 293 291 290 289 288 288 289 289 289 290 291 291 291 290 290 288 287 287 287 288 288 289 290 291 291 291 292 293 294 295 296 296 296 296 294 291 288 284 280 277 274 272 271 271 272 274 276 277 278 280 281 280 275
299 299 299 298 297 296 295 295 295 295 295 294 294 294 293 292 291 290 289 288 288 288 288 288 289 290 291 291 291 290 289 287 287 286 286 287 287 288 289 289 289 289 290 291 292 293 294 295 295 295 294 291 289 285 282 278 276 273 271 269 270 272 275 276 278 279 279 277 272
299 298 297 296 296 295 295 295 295 295 295 295 294 294 292 291 290 289 288 288 287 287 288 288 289 290 290 290 290 289 287 286 285 285 285 285 286 287 288 288 288 287 287 288 289 290 292 293 293 293 292 291 288 286 282 279 276 274 271 269 269 270 273 276 278 278 277 274 268
299 298 297 296 296 295 295 295 296 295 295 295 294 293 292 291 290 289 289 288 287 287 288 289 289 289 289 289 288 287 286 284 284 284 284 285 286 286 287 287 286 285 285 285 286 288 289 290 291 291 290 288 287 285 282 279 277 274 271 269 268 269 271 274 276 277 275 271 266
302 301 300 299 298 298 298 297 297 297 296 296 295 294 293 292 291 290 289 288 288 288 288 288 289 288 288 287 286 285 284 284 283 283 284 284 284 284 285 285 284 283 283 283 284 285 287 288 289 289 288 286 284 282 280 278 276 274 271 269 268 267 269 271 274 275 272 268 263
305 304 303 302 301 301 300 299 299 298 298 297 296 295 294 293 291 290 289 288 288 287 287 288 287 287 286 285 285 284 284 283 283 283 283 283 283 283 283 283 283 282 281 282 283 285 286 287 288 287 286 284 282 280 278 277 275 273 271 269 267 266 267 269 272 272 270 266 261
306 305 304 303 303 302 301 301 300 299 299 298 297 295 294 293 291 290 289 288 288 287 287 287 286 286 285 284 284 283 283 283 283 283 283 283 282 282 282 282 282 282 282 282 283 285 286 287 287 287 286 284 282 280 279 277 275 273 271 268 266 265 265 267 268 269 267 263 260
305 305 304 304 303 302 302 301 300 299 299 298 296 295 294 292 291 290 289 288 288 287 287 287 286 285 284 284 283 283 283 283 283 283 283 283 283 283 282 282 282 281 282 282 283 284 285 286 286 286 285 284 283 281 280 279 277 275 272 269 266 265 264 265 265 264 263 260 258
305 304 304 303 303 302 301 300 300 299 298 297 296 295 293 292 291 289 289 288 288 287 287 286 285 285 284 284 283 283 282 282 283 283 283 283 283 283 282 282 281 281 281 281 282 283 283 284 284 284 284 283 281 280 279 278 277 276 274 271 268 266 265 263 261 259 257 256 254
304 304 303 303 302 301 301 300 299 298 297 296 295 294 293 292 291 290 289 288 287 286 286 286 285 285 284 284 283 283 282 282 282 282 283 283 282 282 282 282 281 280 280 281 282 283 283 283 283 283 282 281 279 277 275 274 273 273 273 271 269 267 264 260 255 252 251 251 249
304 304 303 303 302 301 300 299 299 298 297 296 295 294 293 292 291 290 289 288 287 286 286 286 286 285 284 284 284 283 283 282 282 282 282 282 282 282 282 281 280 280 280 280 282 282 283 283 283 282 281 279 278 276 274 272 271 271 270 269 268 265 260 254 249 247 247 247 246
305 304 303 303 302 301 300 299 298 298 297 296 295 294 293 292 291 289 288 288 287 287 286 286 286 285 285 284 284 283 282 282 282 281 281 281 281 281 281 281 280 279 279 280 281 282 282 283 282 280 278 275 274 272 272 271 270 269 269 267 266 262 256 249 244 244 244 244 242
305 305 304 303 302 301 300 299 298 297 296 296 295 294 292 291 290 289 288 288 288 287 287 286 286 286 285 284 283 282 282 282 281 281 280 280 280 279 279 279 279 279 280 281 282 282 283 283 282 280 277 274 271 268 267 267 267 267 266 264 262 257 249 242 239 240 241 241 237
305 305 304 303 302 301 300 299 298 297 296 296 295 294 293 291 291 290 289 289 288 288 287 287 286 286 285 284 283 282 282 281 280 280 279 279 279 279 279 279 279 279 280 282 283 283 284 283 282 281 279 276 273 270 266 263 263 263 263 260 257 250 242 234 232 234 236 234 230
306 305 304 303 301 300 299 299 298 297 297 296 295 294 293 293 292 291 290 289 289 288 287 286 286 285 284 282 282 282 281 280 280 280 279 279 279 279 279 280 280 281 282 283 283 284 284 283 282 281 279 277 274 271 266 262 261 260 260 257 252 244 236 228 226 227 228 227 224
305 304 303 302 301 300 299 299 298 298 297 297 296 295 294 293 292 291 290 290 289 288 287 286 285 284 283 282 282 281 281 281 281 280 280 279 279 280 280 280 281 282 283 283 284 284 283 283 281 280 278 276 273 269 265 261 260 259 257 252 246 239 232 226 223 223 223 222 219
305 304 303 302 301 301 300 299 299 299 298 297 296 295 294 293 292 291 291 290 289 288 288 287 286 285 284 283 283 282 282 281 281 281 281 280 280 280 281 281 282 283 283 284 284 284 283 283 281 280 278 275 272 268 264 262 261 258 252 246 241 236 229 224 221 221 220 219 216
305 304 303 303 302 301 301 301 300 300 299 298 297 296 295 294 293 292 292 291 290 289 288 288 287 286 285 285 284 284 283 283 282 282 282 282 282 282 282 282 283 283 284 285 285 284 284 283 283 281 279 275 271 268 265 264 262 255 245 238 236 232 228 223 221 219 218 216 214
305 305 305 304 303 303 303 302 302 301 300 299 298 297 297 296 295 294 293 293 292 292 291 289 288 287 287 286 286 285 285 284 284 284 283 283 283 283 283 283 283 284 285 285 285 285 285 285 284 283 280 275 271 267 265 264 258 248 238 231 228 226 223 220 218 216 214 211 208
307 307 306 306 305 305 304 304 304 303 302 301 300 299 298 298 296 296 296 296 295 294 293 292 291 290 289 288 288 287 286 285 285 285 285 285 284 284 284 284 284 285 285 285 285 285 286 286 286 284 280 274 269 265 261 257 248 238 230 225 222 218 215 212 210 208 205 202 199
308 308 308 307 307 306 306 306 305 304 303 302 301 300 300 300 299 299 298 298 297 295 293 292 292 291 290 289 288 288 287 286 286 286 287 286 286 285 285 285 286 286 286 286 286 286 287 288 287 284 279 273 267 262 254 244 235 227 222 219 215 211 206 202 199 196 193 191 190
310 310 309 308 308 307 307 306 305 304 304 303 302 302 301 301 300 300 300 299 297 295 294 293 292 291 291 290 290 289 289 289 288 288 288 287 287 286 286 286 287 287 287 287 287 288 290 290 288 283 276 269 262 254 242 229 219 213 210 209 206 203 198 194 190 187 185 184 183
311 311 310 309 308 307 307 306 305 305 304 303 303 302 302 302 301 301 301 300 297 295 294 294 293 293 293 293 292 292 291 291 290 289 288 288 288 287 287 287 288 288 288 288 289 290 291 289 283 273 264 257 250 239 224 210 202 198 197 195 193 190 187 184 182 180 179 179 179
312 311 310 309 308 307 306 306 305 305 304 303 303 304 304 304 303 303 303 302 299 297 295 295 294 294 294 294 293 292 292 292 291 289 288 288 288 288 288 288 288 289 289 290 291 291 289 281 269 256 245 239 232 221 207 196 189 185 183 181 179 177 177 176 176 176 175 175 175
312 311 310 309 308 307 307 306 306 305 305 305 305 306 306 306 306 305 304 303 301 299 296 295 295 295 295 295 293 292 292 292 291 290 289 288 288 288 288 288 288 289 290 292 292 289 282 269 254 240 232 226 216 204 193 185 179 175 173 172 170 169 170 171 172 172 172 172 173
312 312 311 310 310 309 308 307 307 308 308 309 308 309 309 308 308 307 305 304 302 300 298 297 296 296 296 295 294 293 292 292 292 291 290 289 289 288 288 287 288 289 290 292 289 280 266 251 237 227 220 212 200 190 182 177 173 170 168 168 168 168 167 168 169 170 170 170 172
Height
1478 1477 1477 1476 1475 1474 1473 1472 1471 1470 1470 1469 1468 1467 1466 1465 1464 1462 1461 1460 1459 1458 1456 1455 1454 1453 1452 1451 1450 1450 1449 1448 1447 1446 1445 1445 1444 1443 1442 1442 1441 1441 1440 1440 1439 1439 1439 1439 1438 1438 1437 1437 1436 1436 1436 1436 1436 1436 1437 1437 1437 1438 1438 1438 1438 1438 1438 1439 1440
1477 1476 1475 1475 1474 1473 1472 1471 1470 1469 1468 1468 1467 1465 1465 1463 1462 1461 1460 1459 1458 1456 1455 1454 1453 1452 1451 1450 1449 1448 1447 1446 1445 1444 1443 1442 1442 1441 1440 1440 1439 1439 1438 1437 1437 1437 1436 1436 1436 1435 1435 1434 1434 1434 1433 1434 1434 1434 1434 1434 1434 1435 1435 1435 1435 1435 1435 1436 1436
1475 1475 1474 1473 1472 1471 1470 1469 1468 1468 1467 1466 1465 1464 1463 1462 1460 1459 1458 1457 1456 1455 1454 1452 1451 1450 1450 1448 1447 1446 1445 1444 1443 1442 1441 1440 1440 1439 1438 1437 1437 1436 1435 1435 1435 1434 1434 1434 1433 1433 1432 1431 1431 1431 1430 1431 1431 1431 1431 1431 1431 1431 1432 1432 1432 1433 1433 1433 1433
1474 1473 1472 1471 1470 1470 1469 1468 1467 1466 1465 1464 1463 1462 1461 1460 1459 1457 1456 1455 1454 1453 1452 1451 1450 1449 1448 1447 1445 1445 1443 1442 1441 1440 1439 1438 1437 1437 1436 1435 1435 1434 1433 1432 1432 1431 1431 1431 1431 1430 1429 1429 1428 1428 1427 1427 1428 1428 1428 1428 1428 1428 1429 1429 1429 1429 1430 1430 1430
1472 1471 1470 1470 1469 1468 1467 1466 1465 1464 1463 1462 1461 1460 1459 1458 1457 1455 1454 1453 1452 1451 1450 1449 1448 1447 1446 1445 1444 1442 1441 1440 1439 1438 1436 1435 1435 1434 1434 1433 1432 1431 1430 1430 1429 1429 1428 1428 1428 1427 1426 1426 1425 1425 1424 1425 1425 1425 1425 1425 1425 1425 1425 1425 1426 1426 1427 1427 1427
1470 1469 1468 1468 1467 1466 1465 1464 1463 1462 1461 1460 1459 1458 1457 1456 1455 1454 1452 1451 1450 1449 1448 1447 1446 1445 1444 1443 1441 1440 1439 1438 1437 1435 1434 1433 1432 1431 1431 1430 1430 1429 1428 1427 1427 1426 1426 1425 1425 1424 1423 1423 1422 1421 1421 1421 1421 1421 1421 1421 1421 1422 1423 1423 1423 1424 1424 1424 1424
1468 1467 1466 1465 1465 1464 1463 1462 1461 1460 1459 1458 1457 1456 1455 1454 1453 1452 1450 1450 1448 1447 1446 1445 1444 1442 1441 1440 1439 1438 1436 1435 1434 1433 1432 1431 1430 1429 1428 1427 1426 1426 1425 1425 1424 1424 1423 1423 1422 1421 1420 1420 1419 1418 1418 1418 1418 1418 1418 1417 1417 1418 1420 1420 1420 1420 1421 1421 1421
1466 1465 1464 1463 1462 1461 1460 1460 1459 1458 1457 1456 1455 1454 1453 1452 1451 1450 1449 1447 1446 1445 1444 1443 1442 1440 1439 1438 1436 1435 1434 1433 1431 1430 1429 1428 1427 1426 1425 1424 1424 1423 1422 1422 1422 1421 1421 1420 1420 1418 1417 1417 1416 1415 1415 1415 1415 1415 1414 1414 1414 1415 1415 1416 1416 1417 1417 1417 1418
1464 1463 1462 1461 1460 1459 1458 1457 1456 1455 1455 1454 1453 1452 1451 1450 1449 1448 1446 1445 1444 1443 1442 1441 1440 1438 1437 1436 1434 1433 1431 1430 1428 1427 1426 1425 1424 1423 1422 1421 1420 1420 1419 1419 1419 1419 1418 1417 1417 1415 1415 1414 1413 1412 1412 1413 1412 1412 1411 1411 1411 1411 1411 1412 1413 1414 1414 1414 1415
1462 1460 1460 1459 1458 1457 1456 1455 1454 1453 1452 1451 1450 1449 1449 1448 1447 1445 1444 1443 1442 1441 1440 1439 1437 1436 1435 1434 1432 1431 1429 1428 1426 1425 1423 1422 1421 1420 1419 1418 1417 1417 1416 1416 1416 1415 1415 1414 1413 1412 1411 1411 1410 1410 1409 1410 1410 1409 1409 1408 1408 1408 1408 1409 1410 1410 1411 1411 1411
1460 1459 1457 1456 1455 1455 1454 1453 1452 1451 1450 1449 1448 1447 1446 1445 1444 1443 1442 1441 1440 1438 1437 1436 1435 1434 1433 1431 1430 1429 1427 1425 1424 1422 1420 1419 1418 1417 1416 1415 1414 1414 1413 1412 1412 1412 1411 1410 1410 1409 1408 1408 1407 1406 1406 1405 1406 1405 1405 1405 1405 1405 1404 1405 1406 1407 1407 1407 1407
1458 1456 1455 1454 1453 1452 1451 1450 1450 1448 1447 1446 1445 1444 1443 1442 1441 1440 1440 1439 1437 1436 1435 1434 1433 1432 1430 1429 1428 1426 1425 1423 1422 1420 1418 1417 1415 1414 1413 1412 1411 1410 1410 1409 1409 1409 1408 1407 1406 1406 1405 1404 1404 1403 1402 1402 1402 1402 1401 1401 1401 1401 1401 1400 1402 1403 1404 1404 1404
1455 1454 1453 1452 1450 1450 1449 1448 1447 1446 1445 1444 1443 1442 1441 1440 1439 1438 1437 1436 1435 1433 1432 1431 1430 1429 1428 1426 1425 1424 1423 1421 1420 1418 1416 1415 1413 1412 1410 1409 1408 1407 1406 1405 1405 1405 1405 1404 1403 1402 1402 1401 1400 1400 1400 1399 1399 1398 1398 1398 1398 1398 1397 1397 1398 1399 1400 1400 1400
1454 1452 1451 1450 1448 1447 1446 1445 1444 1443 1442 1441 1440 1439 1438 1437 1436 1435 1435 1433 1432 1430 1429 1428 1427 1426 1425 1424 1423 1421 1420 1419 1417 1415 1414 1412 1410 1409 1408 1406 1405 1404 1403 1402 1402 1402 1401 1400 1400 1399 1398 1397 1397 1396 1396 1395 1395 1395 1395 1395 1394 1394 1394 1394 1395 1395 1396 1396 1396
1451 1450 1449 1448 1446 1445 1444 1442 1441 1440 1440 1439 1438 1437 1436 1435 1434 1433 1431 1430 1429 1428 1426 1425 1424 1423 1422 1421 1420 1419 1417 1416 1415 1413 1411 1409 1408 1406 1405 1404 1402 1401 1400 1400 1399 1398 1398 1397 1396 1395 1395 1394 1393 1392 1392 1392 1391 1391 1391 1391 1391 1390 1390 1391 1391 1392 1393 1393 1394
1449 1448 1447 1446 1444 1443 1441 1440 1439 1438 1437 1436 1435 1434 1433 1432 1430 1430 1428 1427 1425 1425 1423 1422 1421 1420 1419 1418 1417 1415 1414 1413 1411 1410 1408 1406 1405 1403 1402 1400 1399 1398 1397 1397 1396 1395 1394 1394 1393 1392 1391 1390 1389 1389 1388 1388 1388 1387 1387 1387 1387 1387 1387 1387 1388 1389 1390 1390 1391
1446 1445 1445 1444 1442 1441 1439 1438 1436 1435 1434 1433 1432 1431 1430 1429 1427 1426 1425 1424 1423 1421 1420 1419 1418 1416 1415 1414 1413 1412 1411 1409 1408 1406 1405 1403 1401 1400 1399 1397 1396 1395 1394 1394 1393 1392 1391 1390 1390 1389 1388 1387 1386 1385 1385 1384 1384 1384 1383 1383 1384 1384 1384 1384 1385 1385 1386 1387 1388
1444 1443 1442 1441 1440 1439 1437 1435 1434 1433 1431 1430 1429 1428 1427 1425 1424 1423 1422 1420 1420 1418 1416 1415 1414 1413 1412 1410 1409 1408 1407 1406 1404 1403 1401 1400 1398 1397 1395 1394 1393 1392 1391 1390 1389 1388 1387 1386 1386 1385 1385 1384 1383 1382 1381 1381 1380 1380 1380 1380 1380 1380 1380 1380 1380 1382 1383 1384 1384
1441 1440 1440 1438 1437 1435 1434 1433 1431 1430 1428 1427 1426 1425 1423 1422 1421 1419 1418 1417 1416 1415 1413 1411 1410 1409 1408 1407 1405 1404 1403 1402 1400 1399 1398 1396 1395 1393 1392 1390 1390 1389 1388 1387 1386 1385 1384 1383 1382 1381 1381 1380 1379 1379 1378 1378 1377 1376 1376 1376 1376 1376 1376 1376 1377 1378 1379 1380 1381
1440 1438 1437 1436 1434 1433 1431 1430 1428 1427 1425 1424 1423 1421 1420 1418 1417 1416 1414 1413 1412 1411 1409 1408 1406 1405 1404 1403 1401 1400 1399 1398 1397 1395 1394 1393 1391 1390 1389 1387 1386 1385 1384 1383 1382 1381 1380 1380 1379 1378 1377 1376 1375 1375 1374 1374 1374 1373 1373 1373 1373 1373 1373 1373 1373 1374 1375 1376 1377
1437 1436 1435 1433 1431 1430 1428 1426 1425 1424 1422 1420 1419 1418 1416 1415 1413 1412 1410 1409 1408 1407 1405 1404 1402 1401 1400 1399 1397 1396 1395 1394 1393 1391 1390 1389 1387 1386 1385 1384 1383 1382 1381 1380 1379 1377 1376 1375 1375 1374 1373 1372 1372 1371 1370 1370 1370 1370 1369 1369 1369 1369 1369 1369 1370 1370 1371 1372 1374
1435 1433 1431 1430 1428 1427 1425 1423 1422 1420 1419 1417 1415 1414 1412 1411 1410 1408 1406 1405 1404 1402 1401 1400 1398 1397 1396 1395 1393 1392 1390 1390 1388 1387 1385 1384 1383 1382 1381 1380 1379 1378 1376 1375 1374 1373 1372 1371 1370 1370 1369 1368 1367 1367 1366 1366 1366 1365 1365 1365 1365 1365 1365 1366 1366 1367 1367 1368 1370
1432 1430 1429 1427 1425 1424 1422 1420 1418 1417 1415 1414 1412 1410 1409 1407 1405 1404 1403 1401 1400 1398 1397 1395 1394 1393 1391 1390 1389 1388 1386 1385 1383 1382 1381 1380 1379 1377 1376 1376 1375 1374 1372 1371 1370 1369 1368 1367 1366 1365 1365 1365 1364 1363 1362 1362 1362 1362 1361 1361 1361 1361 1362 1362 1362 1363 1364 1365 1366
1429 1427 1426 1424 1422 1420 1419 1417 1415 1413 1412 1410 1409 1407 1405 1404 1402 1400 1399 1397 1396 1394 1393 1391 1390 1389 1387 1386 1385 1384 1382 1380 1379 1377 1376 1375 1374 1373 1372 1371 1370 1369 1368 1367 1365 1365 1364 1363 1362 1362 1361 1361 1361 1360 1359 1359 1359 1358 1358 1358 1358 1358 1358 1359 1359 1360 1360 1361 1362
1426 1425 1423 1421 1419 1417 1415 1413 1412 1410 1408 1406 1405 1403 1401 1400 1398 1396 1395 1393 1391 1390 1389 1387 1385 1384 1383 1381 1380 1379 1378 1376 1375 1373 1371 1370 1369 1368 1368 1367 1366 1365 1363 1362 1360 1360 1359 1359 1359 1358 1358 1357 1357 1357 1356 1356 1355 1355 1355 1355 1355 1355 1355 1355 1355 1356 1357 1358 1359
1424 1422 1420 1418 1416 1414 1412 1410 1408 1406 1405 1403 1401 1400 1398 1396 1394 1392 1390 1389 1387 1385 1384 1383 1381 1380 1379 1377 1375 1374 1373 1371 1370 1369 1367 1366 1365 1364 1363 1362 1361 1360 1358 1357 1356 1355 1355 1355 1355 1355 1354 1354 1354 1353 1353 1352 1352 1352 1352 1352 1352 1352 1352 1352 1352 1353 1354 1355 1356
1421 1419 1416 1415 1412 1410 1408 1406 1405 1403 1401 1399 1398 1396 1394 1392 1390 1388 1386 1385 1383 1381 1380 1379 1377 1375 1374 1373 1371 1370 1368 1367 1365 1364 1363 1362 1360 1359 1358 1357 1356 1355 1353 1352 1351 1351 1350 1350 1350 1350 1350 1351 1350 1350 1350 1349 1348 1348 1348 1348 1349 1349 1349 1348 1348 1349 1351 1352 1353
1418 1415 1413 1411 1409 1407 1405 1403 1401 1399 1397 1395 1394 1392 1390 1388 1386 1384 1382 1380 1379 1377 1376 1374 1373 1371 1370 1368 1366 1365 1363 1362 1361 1360 1359 1358 1356 1355 1354 1352 1351 1350 1348 1347 1346 1346 1345 1345 1345 1345 1345 1346 1346 1346 1345 1345 1345 1345 1345 1345 1345 1345 1345 1345 1345 1346 1347 1349 1349
1415 1412 1410 1408 1406 1404 1401 1400 1397 1395 1394 1392 1390 1388 1386 1384 1382 1380 1378 1376 1375 1373 1371 1370 1368 1367 1365 1364 1362 1360 1359 1358 1357 1356 1355 1353 1351 1350 1349 1347 1346 1345 1343 1343 1342 1341 1340 1340 1340 1340 1340 1341 1341 1341 1340 1340 1340 1340 1341 1341 1341 1342 1342 1342 1342 1343 1344 1345 1346
1412 1410 1407 1405 1402 1400 1398 1396 1394 1392 1390 1388 1386 1384 1382 1380 1378 1376 1374 1372 1370 1369 1367 1366 1365 1363 1361 1359 1358 1356 1355 1353 1352 1351 1350 1349 1346 1345 1343 1342 1341 1340 1338 1337 1337 1336 1336 1335 1335 1335 1335 1335 1336 1336 1336 1335 1336 1336 1337 1337 1337 1338 1338 1339 1339 1340 1340 1341 1343
1409 1406 1404 1401 1399 1396 1394 1392 1390 1388 1386 1384 1382 1380 1378 1376 1374 1371 1370 1368 1366 1364 1363 1362 1360 1358 1356 1355 1353 1352 1350 1349 1348 1346 1345 1344 1342 1340 1338 1337 1336 1334 1333 1332 1332 1331 1331 1330 1330 1330 1330 1330 1331 1331 1331 1331 1332 1332 1333 1332 1333 1334 1335 1335 1335 1336 1337 1338 1339
1405 1403 1401 1398 1395 1393 1391 1389 1387 1385 1382 1380 1378 1376 1374 1371 1369 1367 1365 1364 1362 1360 1358 1357 1355 1353 1351 1350 1349 1347 1346 1344 1343 1341 1340 1339 1337 1335 1333 1332 1330 1329 1328 1327 1327 1326 1326 1325 1325 1325 1325 1325 1326 1326 1326 1327 1327 1328 1329 1328 1328 1330 1331 1332 1333 1333 1334 1335 1336
1402 1400 1397 1395 1392 1390 1387 1385 1383 1381 1379 1376 1374 1372 1370 1367 1365 1363 1361 1360 1358 1356 1354 1352 1350 1348 1346 1345 1344 1342 1340 1339 1338 1336 1335 1334 1332 1331 1329 1327 1325 1324 1323 1323 1322 1321 1321 1320 1320 1320 1320 1320 1320 1321 1321 1322 1323 1324 1325 1324 1325 1326 1328 1329 1329 1330 1331 1332 1333
1399 1397 1394 1391 1389 1386 1383 1381 1379 1376 1374 1372 1369 1367 1365 1363 1361 1359 1357 1355 1354 1352 1350 1348 1346 1344 1342 1340 1339 1337 1336 1334 1333 1332 1330 1329 1328 1326 1324 1322 1320 1319 1318 1318 1317 1317 1316 1315 1315 1315 1314 1315 1315 1315 1316 1317 1318 1320 1320 1321 1322 1323 1325 1325 1326 1327 1328 1329 1330
1396 1394 1391 1388 1385 1382 1380 1377 1375 1372 1370 1367 1365 1363 1361 1359 1357 1355 1353 1351 1349 1347 1345 1343 1341 1340 1338 1336 1335 1333 1331 1330 1328 1327 1326 1325 1323 1321 1319 1317 1315 1314 1314 1314 1313 1312 1311 1310 1310 1309 1309 1309 1310 1310 1310 1311 1313 1314 1315 1317 1319 1320 1322 1323 1323 1325 1326 1327 1328
1393 1390 1388 1384 1381 1379 1376 1374 1371 1369 1366 1364 1361 1359 1356 1355 1352 1350 1349 1347 1345 1343 1340 1338 1337 1335 1334 1332 1330 1329 1327 1325 1324 1322 1321 1320 1319 1317 1315 1312 1310 1310 1309 1309 1308 1307 1306 1305 1305 1304 1304 1304 1304 1304 1305 1306 1308 1309 1311 1313 1315 1317 1318 1320 1321 1322 1324 1325 1326
1390 1388 1385 1381 1378 1375 1373 1370 1368 1365 1363 1360 1357 1355 1353 1351 1349 1346 1345 1344 1342 1339 1336 1334 1333 1331 1329 1327 1325 1324 1322 1321 1320 1318 1316 1315 1314 1312 1310 1307 1306 1305 1304 1304 1304 1303 1302 1300 1300 1299 1299 1299 1300 1300 1301 1302 1304 1305 1307 1309 1311 1313 1315 1317 1319 1320 1322 1324 1325
1387 1385 1382 1379 1375 1373 1370 1367 1365 1362 1359 1357 1354 1352 1350 1348 1345 1343 1341 1340 1338 1335 1332 1330 1328 1326 1324 1323 1321 1319 1317 1316 1315 1313 1311 1310 1309 1307 1305 1303 1301 1300 1300 1299 1299 1298 1297 1296 1296 1296 1296 1296 1296 1297 1298 1299 1300 1302 1304 1306 1308 1310 1312 1315 1317 1320 1321 1323 1325
1385 1382 1379 1376 1373 1370 1367 1365 1362 1359 1356 1354 1351 1348 1346 1344 1342 1340 1337 1336 1334 1332 1329 1326 1324 1321 1320 1318 1317 1314 1312 1310 1310 1308 1307 1305 1303 1302 1301 1299 1297 1295 1295 1295 1294 1294 1293 1294 1294 1294 1294 1294 1294 1295 1296 1297 1298 1300 1301 1303 1305 1308 1311 1315 1317 1320 1322 1324 1326
1382 1379 1376 1374 1370 1367 1365 1362 1359 1356 1354 1351 1348 1345 1343 1340 1338 1336 1334 1332 1330 1328 1325 1322 1320 1317 1315 1314 1312 1310 1307 1305 1304 1303 1302 1300 1299 1298 1297 1295 1293 1291 1290 1290 1290 1290 1290 1291 1291 1292 1292 1292 1292 1293 1294 1295 1297 1299 1300 1302 1305 1308 1312 1315 1318 1320 1323 1325 1327
1379 1376 1374 1370 1368 1365 1362 1359 1356 1353 1350 1348 1345 1343 1340 1337 1335 1332 1330 1328 1326 1324 1321 1318 1315 1313 1311 1310 1308 1305 1302 1300 1298 1297 1297 1296 1295 1293 1292 1291 1290 1288 1287 1286 1286 1287 1288 1288 1289 1290 1290 1291 1291 1291 1293 1294 1296 1298 1300 1302 1305 1308 1312 1315 1318 1321 1323 1325 1328